Weather History for Bartlesville, OK

Change the Weather History Date:

Monday, June 3, 2013

  Actual Average Record
Temperature  
Mean Temperature 62 °F -  
Max Temperature 80 °F 83 °F 95 °F (1953)
Min Temperature 46 °F 60 °F 46 °F (2013)
Degree Days  
Heating Degree Days 2    
Growing Degree Days 12 (Base 50)    
Moisture  
Dew Point 57 °F    
Average Humidity 77    
Maximum Humidity 100    
Minimum Humidity 54    
Precipitation  
Precipitation 0.00 in - - ()
Sea Level Pressure  
Sea Level Pressure 29.96 in    
Wind  
Wind Speed 3 mph (SSE)    
Max Wind Speed 13 mph    
Max Gust Speed -    
Visibility 9 miles    
Events      
Averages and records for this station are not official NWS values.
T = Trace of Precipitation, MM = Missing Value Source: NWS Daily Summary

Daily Weather History Graph

Daily Weather History Graph

Search for Another Location

Airport:

Trip Planner

Search our weather history database for the weather conditions in past years. The results will help you decide how hot, cold, wet, or windy it might be!

Date:

Astronomy

Jun. 03, 2013 Rise Set
Actual Time 6:05 AM CDT 8:38 PM CDT
Civil Twilight 5:35 AM CDT 9:09 PM CDT
Nautical Twilight 4:58 AM CDT 9:46 PM CDT
Astronomical Twilight 4:16 AM CDT 10:28 PM CDT
Moon 2:57 AM CDT (6/3) 4:16 PM CDT (6/3)
Length of Visible Light 15h 33m
Length of Day
14h 33m
Waning Crescent, 22% of the Moon is Illuminated
Jun 3
Waning Crescent
Jun 8
New
Jun 16
First Quarter
Jun 23
Full
Jun 29
Last Quarter

Hourly Weather History & Observations

Time (CDT) Temp. Dew Point Humidity Pressure Visibility Wind Dir Wind Speed Gust Speed Precip Events Conditions
12:53 AM 50.0 °F 50.0 °F 100% 30.05 in 7.0 mi Calm Calm - N/A   Clear
1:53 AM 48.0 °F 48.0 °F 100% 30.03 in 7.0 mi Calm Calm - N/A   Clear
2:53 AM 48.0 °F 48.0 °F 100% 30.04 in 10.0 mi Calm Calm - N/A   Clear
3:53 AM 46.9 °F 46.9 °F 100% 30.04 in 10.0 mi Calm Calm - N/A   Clear
4:53 AM 46.9 °F 46.9 °F 100% 30.04 in 9.0 mi Calm Calm - N/A   Clear
5:53 AM 46.9 °F 46.9 °F 100% 30.04 in 6.0 mi Calm Calm - N/A   Clear
6:53 AM 50.0 °F 50.0 °F 100% 30.04 in 6.0 mi Calm Calm - N/A   Clear
7:53 AM 55.9 °F 54.0 °F 93% 30.02 in 10.0 mi Calm Calm - N/A   Clear
8:53 AM 62.1 °F 57.0 °F 84% 30.03 in 10.0 mi SSE 4.6 mph - N/A   Clear
9:53 AM 66.0 °F 57.0 °F 73% 30.02 in 10.0 mi SE 4.6 mph - N/A   Clear
10:53 AM 69.1 °F 59.0 °F 70% 30.01 in 10.0 mi South 5.8 mph - N/A   Clear
11:53 AM 71.1 °F 59.0 °F 66% 29.99 in 10.0 mi SSE 5.8 mph - N/A   Clear
12:53 PM 73.9 °F 60.1 °F 62% 29.98 in 10.0 mi Variable 5.8 mph - N/A   Clear
1:53 PM 75.9 °F 61.0 °F 60% 29.95 in 10.0 mi SE 5.8 mph - N/A   Clear
2:53 PM 79.0 °F 62.1 °F 56% 29.92 in 10.0 mi Variable 6.9 mph - N/A   Clear
3:53 PM 79.0 °F 61.0 °F 54% 29.89 in 10.0 mi Variable 6.9 mph - N/A   Clear
4:53 PM 79.0 °F 62.1 °F 56% 29.87 in 10.0 mi ESE 11.5 mph - N/A   Clear
5:53 PM 79.0 °F 61.0 °F 54% 29.85 in 10.0 mi SE 12.7 mph - N/A   Clear
6:53 PM 77.0 °F 61.0 °F 58% 29.84 in 10.0 mi SE 11.5 mph - N/A   Clear
7:53 PM 75.0 °F 61.0 °F 62% 29.84 in 10.0 mi SE 8.1 mph - N/A   Clear
8:53 PM 72.0 °F 62.1 °F 71% 29.85 in 10.0 mi SE 4.6 mph - N/A   Clear
9:53 PM 71.1 °F 61.0 °F 70% 29.87 in 10.0 mi SSE 5.8 mph - N/A   Clear
10:53 PM 66.9 °F 62.1 °F 84% 29.88 in 10.0 mi SSE 3.5 mph - N/A   Clear
11:53 PM 66.9 °F 61.0 °F 81% 29.88 in 10.0 mi Calm Calm - N/A   Clear